Chrisopigi Lady — A8EQ9 — position and weather

sailwx.info

Track history (hours):
 
Tides and Currents Weather Stations Pressure Air Temp Water Temp Dewpoint Dewpoint Depression Visibility Wind Speed Wind Dir Waves Ship Positions

Chrisopigi Lady

Last reported at 2014-Oct-21 07:24 UTC. Time now 2014-Oct-21 10:35 UTC.
Position N 29°45' W 095°06'.

Length 228 m; draft 8.2 m.

Type: Ship (hazmat cat A). MMSI: 636012314.

Date/timePositionNaut miles runAvg speedWind from/ knotsBaromVisibWave heightAir tempDewpointWater temp
2014-Oct-21 07:24N 29°45' W 095°06'5 5.4
2014-Oct-21 06:33N 29°43' W 095°01'1110.6
2014-Oct-21 05:33N 29°34' W 094°55'1212.2
2014-Oct-21 04:33N 29°23' W 094°49'  
2014-Oct-17 19:09N 25°45' W 079°50'6 9.6
2014-Oct-17 18:33N 25°51' W 079°49'10 9.6
2014-Oct-17 17:33N 26°00' W 079°48'10 9.6
2014-Oct-17 16:33N 26°10' W 079°47'10 9.6
2014-Oct-17 15:33N 26°19' W 079°46'10 9.7
2014-Oct-17 14:33N 26°29' W 079°45'1010.1
2014-Oct-17 13:33N 26°39' W 079°44'1010.0
2014-Oct-17 12:33N 26°49' W 079°43'1010.1
2014-Oct-17 11:34N 26°59' W 079°42'1010.3
2014-Oct-17 10:34N 27°09' W 079°40'  
2014-Oct-14 15:29N 38°11' W 074°12'3012.5
2014-Oct-14 13:07N 38°40' W 074°04'812.6
2014-Oct-14 12:29N 38°48' W 074°02'1212.7
2014-Oct-14 11:30N 38°60' W 073°59'1312.7
2014-Oct-14 10:30N 39°12' W 073°55'1212.9
2014-Oct-14 09:33N 39°23' W 073°47'1312.8
2014-Oct-14 08:33N 39°34' W 073°39'1912.5
2014-Oct-14 07:04N 39°50' W 073°27'1112.5
2014-Oct-14 06:12N 39°60' W 073°20'1112.3
2014-Oct-14 05:20N 40°08' W 073°29'1212.5
2014-Oct-14 04:22N 40°17' W 073°39'1012.2
2014-Oct-14 03:31N 40°26' W 073°46'2010.3
2014-Oct-14 01:33N 40°30' W 074°12'3 0.1
2014-Oct-12 13:31N 40°33' W 074°15'4 3.7
2014-Oct-12 12:33N 40°30' W 074°13'8 8.4
2014-Oct-12 11:33N 40°28' W 074°02'5 4.8
2014-Oct-12 10:31N 40°30' W 073°56'9 8.9
2014-Oct-12 09:32N 40°37' W 074°03'3 2.9
2014-Oct-12 08:31N 40°39' W 074°05'  
Track history (hours):
 
Tides and Currents Weather Stations Pressure Air Temp Water Temp Dewpoint Dewpoint Depression Visibility Wind Speed Wind Dir Waves Ship Positions

Chrisopigi Lady

Last reported at 2014-Oct-21 07:24 UTC. Time now 2014-Oct-21 10:35 UTC.
Position N 29°45' W 095°06'.

Length 228 m; draft 8.2 m.

Type: Ship (hazmat cat A). MMSI: 636012314.

Date/timePositionNaut miles runAvg speedWind from/ knotsBaromVisibWave heightAir tempDewpointWater temp
2014-Oct-21 07:24N 29°45' W 095°06'5 5.4
2014-Oct-21 06:33N 29°43' W 095°01'1110.6
2014-Oct-21 05:33N 29°34' W 094°55'1212.2
2014-Oct-21 04:33N 29°23' W 094°49'  
2014-Oct-17 19:09N 25°45' W 079°50'6 9.6
2014-Oct-17 18:33N 25°51' W 079°49'10 9.6
2014-Oct-17 17:33N 26°00' W 079°48'10 9.6
2014-Oct-17 16:33N 26°10' W 079°47'10 9.6
2014-Oct-17 15:33N 26°19' W 079°46'10 9.7
2014-Oct-17 14:33N 26°29' W 079°45'1010.1
2014-Oct-17 13:33N 26°39' W 079°44'1010.0
2014-Oct-17 12:33N 26°49' W 079°43'1010.1
2014-Oct-17 11:34N 26°59' W 079°42'1010.3
2014-Oct-17 10:34N 27°09' W 079°40'  
2014-Oct-14 15:29N 38°11' W 074°12'3012.5
2014-Oct-14 13:07N 38°40' W 074°04'812.6
2014-Oct-14 12:29N 38°48' W 074°02'1212.7
2014-Oct-14 11:30N 38°60' W 073°59'1312.7
2014-Oct-14 10:30N 39°12' W 073°55'1212.9
2014-Oct-14 09:33N 39°23' W 073°47'1312.8
2014-Oct-14 08:33N 39°34' W 073°39'1912.5
2014-Oct-14 07:04N 39°50' W 073°27'1112.5
2014-Oct-14 06:12N 39°60' W 073°20'1112.3
2014-Oct-14 05:20N 40°08' W 073°29'1212.5
2014-Oct-14 04:22N 40°17' W 073°39'1012.2
2014-Oct-14 03:31N 40°26' W 073°46'2010.3
2014-Oct-14 01:33N 40°30' W 074°12'3 0.1
2014-Oct-12 13:31N 40°33' W 074°15'4 3.7
2014-Oct-12 12:33N 40°30' W 074°13'8 8.4
2014-Oct-12 11:33N 40°28' W 074°02'5 4.8
2014-Oct-12 10:31N 40°30' W 073°56'9 8.9
2014-Oct-12 09:32N 40°37' W 074°03'3 2.9
2014-Oct-12 08:31N 40°39' W 074°05'  

Dump ship's entire track history